Location: Mahannah Oil Field
(37.4664°N, 96.6003°W)
Time: 05:41:10
(UTC+00:00)

Transit 2A Rocket - Visible Passes

Search period start: 28 January 2021 00:00
Search period end: 07 February 2021 00:00
Orbit: 592 x 910 km, 66.7° (Epoch: 27 January)

Date Brightness Start Highest point End Pass type
(mag) Time Alt. Az. Time Alt. Az. Time Alt. Az.
29 Jan 6.8 01:13:56 10° NNE 01:14:01 10° NNE 01:14:01 10° NNE visible
30 Jan 6.9 02:12:14 10° NNW 02:13:05 15° NNW 02:13:05 15° NNW visible
31 Jan 5.7 01:29:54 10° N 01:32:24 27° NNE 01:32:24 27° NNE visible
01 Feb 5.8 00:47:55 10° N 00:51:06 20° NE 00:51:56 19° ENE visible
01 Feb 6.6 02:29:46 10° NW 02:31:54 24° WNW 02:31:54 24° WNW visible
02 Feb 4.5 01:46:56 10° NNW 01:51:14 75° WSW 01:51:49 63° S visible
03 Feb 4.5 01:04:25 10° NNW 01:08:39 54° ENE 01:12:17 14° SE visible
03 Feb 7.6 02:49:12 10° W 02:50:37 11° WSW 02:52:02 10° SW visible
04 Feb 5.4 00:22:11 10° N 00:25:56 28° NE 00:29:40 10° ESE visible
04 Feb 6.8 02:04:53 10° WNW 02:08:17 23° WSW 02:11:43 10° SSW visible
05 Feb 5.5 01:21:44 10° NW 01:25:52 46° WSW 01:30:01 10° S visible
06 Feb 4.4 00:39:01 10° NNW 00:43:21 85° ENE 00:47:40 10° SSE visible
